Overview Statistics Trail Chart Weather Telemetry Raw packets
 

This is the latest recevied weather packets stored in our database for station/object KF0WJA. If no packets are shown the sender has not sent any weather packets the latest 10 day(s).

<< 30 31 32 33 34 35 36 >>
Time Temp. Humidity Pressure Rain* Wind** Luminosity Snow
1788456820 33.89° C 49% 1015.6 hPa 0 mm - 686 W/m² -
1788456516 33.89° C 49% 1015.6 hPa 0 mm - 672 W/m² -
1788456210 33.33° C 50% 1015.7 hPa 0 mm - 673 W/m² -
1788455906 32.78° C 50% 1015.7 hPa 0 mm - 675 W/m² -
1788455601 32.78° C 53% 1015.7 hPa 0 mm - 678 W/m² -
1788455300 32.78° C 50% 1015.6 hPa 0 mm - 667 W/m² -
1788454996 32.78° C 52% 1015.9 hPa 0 mm - 672 W/m² -
1788454694 33.33° C 53% 1015.9 hPa 0 mm - 673 W/m² -
1788454389 32.78° C 54% 1016.1 hPa 0 mm - 675 W/m² -
1788454089 32.78° C 54% 1016.3 hPa 0 mm - 671 W/m² -
1788453784 32.22° C 55% 1016.2 hPa 0 mm - 670 W/m² -
1788453483 32.22° C 55% 1016.5 hPa 0 mm - 681 W/m² -
1788453180 31.67° C 56% 1016.2 hPa 0 mm - 654 W/m² -
1788452875 31.67° C 57% 1016.2 hPa 0 mm - 638 W/m² -
1788452572 31.67° C 56% 1016.3 hPa 0 mm - 626 W/m² -
1788452267 31.67° C 57% 1016.2 hPa 0 mm - 618 W/m² -
1788451963 31.67° C 57% 1016.3 hPa 0 mm - 627 W/m² -
1788451658 31.11° C 57% 1016.3 hPa 0 mm - 611 W/m² -
1788451357 30.56° C 58% 1016.3 hPa 0 mm - 597 W/m² -
1788451056 31.11° C 58% 1016.2 hPa 0 mm - 550 W/m² -
1788450751 30.56° C 59% 1016.2 hPa 0 mm - 563 W/m² -
1788450446 30.56° C 60% 1016.2 hPa 0 mm - 541 W/m² -
1788450142 30.56° C 59% 1016.3 hPa 0 mm - 537 W/m² -
1788449838 30° C 61% 1016.5 hPa 0 mm - 517 W/m² -
1788449534 29.44° C 62% 1016.5 hPa 0 mm - 505 W/m² -

* Rain latest hour (hover to see other rain measurements)
** Current wind speed in m/s (hover to see current wind gust speed)